Theta_e
309 310 316 318 319 319 321 321 317 321 321 320 321 319 316 320 322 319 318 330 348 348 346 347 349 350 352 354 356 356 354 358 357 353 353 351 348 346 347 345 343 340 337 335 334 337 341 342 343 345 343 339 334 332 332 333 333 336 337 337 337 337 337 336 333 330 330 330 329 329 329 329 329 328 332 338 340 340 342 342 342 342 341 341 339 338 336 335 335 335 333 333 333 334 334 334 334
309 312 316 319 320 319 321 323 321 321 320 316 317 319 318 321 322 321 319 330 349 347 347 350 350 352 351 354 355 356 355 355 353 353 352 349 348 347 347 344 341 338 337 336 333 335 340 342 344 345 345 341 336 332 331 332 333 335 337 337 337 337 337 337 335 332 330 330 330 329 329 329 329 330 333 338 340 340 341 341 341 341 342 341 341 340 338 336 337 337 335 333 333 334 333 334 335
308 310 314 318 318 317 321 322 323 320 318 314 313 320 320 320 321 321 319 331 348 347 347 350 352 352 351 360 362 357 356 354 350 351 349 347 348 346 345 343 340 339 338 337 334 335 339 342 343 344 345 343 338 334 331 332 333 335 336 337 336 337 337 337 336 334 332 331 332 331 331 331 332 332 334 338 339 339 340 340 341 341 342 341 341 341 340 338 337 339 336 334 333 334 335 335 335
306 310 315 318 318 318 323 324 327 322 317 316 313 321 323 319 320 319 319 332 344 345 348 352 355 350 352 363 359 355 355 353 351 351 349 348 349 346 344 342 340 338 337 338 337 336 340 342 343 344 345 344 340 335 332 331 333 335 336 336 337 337 337 337 336 335 333 332 333 334 335 334 335 334 336 337 338 338 339 340 340 340 340 340 340 341 340 338 337 338 338 336 333 332 334 336 335
307 312 313 316 321 320 322 323 326 323 316 319 318 322 326 319 318 316 320 334 337 342 349 354 356 350 350 355 352 355 355 353 351 349 349 348 348 346 343 341 339 338 337 338 337 338 341 343 344 344 345 343 342 338 333 331 333 335 336 336 336 336 337 337 336 336 334 334 335 334 334 332 332 333 334 334 334 335 337 339 339 339 339 339 340 340 339 337 335 336 336 336 334 331 332 334 333
311 313 312 313 317 317 320 319 321 321 317 321 321 324 324 317 317 316 322 340 343 346 350 352 355 353 352 351 349 354 351 353 351 348 347 346 347 344 342 341 339 339 339 337 336 339 341 343 343 344 344 343 344 341 334 331 333 334 336 336 336 336 336 336 336 336 336 335 335 333 331 329 327 326 327 327 328 329 332 335 336 338 337 337 338 338 338 337 335 334 333 333 334 331 329 331 330
312 313 315 315 316 317 323 323 322 322 319 319 320 321 321 318 319 316 319 339 349 349 353 350 350 355 355 352 353 350 347 351 350 348 346 344 345 343 342 340 339 341 341 338 335 337 341 342 342 343 344 344 344 342 337 332 333 335 335 336 336 336 336 336 336 336 336 335 333 332 330 327 325 323 323 323 324 325 328 332 335 336 335 336 337 337 337 337 335 333 332 330 331 330 329 329 329
312 315 317 320 320 318 320 322 320 321 321 319 317 318 320 320 317 316 317 331 347 348 353 349 348 360 357 352 356 350 345 349 347 346 345 344 344 342 342 341 342 342 341 340 337 337 340 340 341 342 343 343 343 342 340 335 334 334 335 336 336 336 335 336 337 336 336 334 333 331 328 326 326 325 325 324 323 324 326 329 332 333 333 335 336 337 336 336 334 332 331 328 327 326 326 326 327
312 314 316 320 321 318 320 319 316 317 319 318 316 317 320 320 316 317 315 326 350 350 350 350 350 361 356 351 355 349 345 346 346 345 343 343 342 342 342 342 341 341 340 341 340 339 339 340 340 341 342 343 342 342 341 339 335 335 336 336 336 336 336 336 337 337 335 334 331 329 328 328 328 328 327 325 325 326 328 330 331 331 332 334 335 335 335 335 333 331 329 326 325 325 324 323 324
315 314 314 320 320 318 319 318 318 319 318 316 315 315 317 315 315 317 312 323 349 351 350 351 351 355 353 353 354 348 345 344 344 344 342 342 341 341 341 340 339 338 337 335 336 339 341 341 339 340 341 341 340 341 341 340 338 335 336 336 336 336 336 336 337 336 334 332 329 329 330 330 330 330 329 327 326 327 329 331 331 332 332 333 334 333 333 333 331 329 328 326 324 323 323 323 323
322 316 316 322 319 316 317 318 320 321 317 315 314 316 315 314 314 313 318 330 347 353 351 351 352 352 351 353 352 346 344 343 344 343 342 341 341 341 340 339 337 335 333 331 335 338 340 340 340 340 339 339 339 340 341 340 339 336 336 337 337 336 336 337 337 335 332 330 329 330 331 331 332 332 332 329 327 327 328 329 329 329 330 331 332 332 331 330 329 327 326 326 325 322 321 322 322
321 316 320 324 319 318 318 318 319 319 317 315 316 317 315 313 312 316 334 345 350 354 349 351 352 350 353 354 351 346 344 343 343 343 342 342 342 341 339 337 335 333 331 333 337 338 340 341 340 340 338 338 339 340 341 340 339 336 337 338 337 337 336 337 337 334 331 329 329 331 331 332 332 332 332 330 329 329 328 329 327 327 327 327 329 330 330 329 326 325 325 326 325 323 323 322 321
321 320 321 320 320 320 318 316 318 321 320 318 316 316 314 313 313 319 341 346 349 352 342 348 350 349 354 353 349 346 344 343 342 343 344 343 343 341 337 335 333 332 330 333 339 339 339 339 339 339 337 338 340 340 340 340 339 337 338 338 337 337 337 338 335 332 330 330 330 331 332 332 332 332 332 331 330 330 330 329 327 327 327 326 327 329 329 328 325 324 325 326 324 324 325 323 321
321 321 321 317 318 319 316 316 317 316 316 317 315 314 314 315 314 319 335 343 343 345 343 346 347 352 355 351 351 348 344 343 342 344 344 343 342 340 336 333 333 335 333 333 338 338 337 336 337 338 337 337 339 340 339 339 339 339 339 338 336 337 337 336 332 330 330 330 330 331 332 333 332 331 331 331 331 330 330 329 329 328 329 328 328 329 329 328 326 324 326 325 323 324 326 324 321
317 319 320 317 317 316 314 315 315 313 314 317 314 313 315 315 315 317 334 352 349 342 346 347 344 354 358 353 354 347 343 343 343 345 344 343 342 340 336 333 334 338 336 332 334 336 336 336 335 336 336 337 337 338 338 339 339 339 338 337 336 337 336 334 330 329 330 330 330 332 333 333 333 331 331 331 330 329 329 329 329 329 328 329 329 330 329 329 328 325 325 324 323 323 325 325 322
314 317 317 315 316 315 313 314 314 314 316 317 313 313 315 315 316 319 329 346 348 340 345 347 340 349 354 351 350 345 342 343 343 344 342 341 341 340 337 336 337 339 335 331 334 336 336 336 335 335 335 335 335 335 337 338 338 338 337 336 336 336 335 331 329 330 331 331 332 333 334 334 333 332 331 330 330 329 328 329 329 329 327 327 328 330 331 330 330 327 325 324 324 324 324 326 324
312 315 316 314 316 315 316 316 314 315 316 316 314 313 314 315 318 324 334 343 346 343 347 348 342 345 349 347 346 343 342 343 343 342 340 340 340 339 338 338 340 339 333 331 337 337 336 336 335 334 335 335 334 334 336 337 337 336 337 336 336 335 333 331 330 332 333 333 333 334 334 334 334 332 331 329 330 330 329 329 328 328 327 325 325 327 330 331 330 328 325 325 325 324 325 325 325
312 317 317 315 315 315 319 318 314 314 314 315 314 314 315 316 315 324 341 345 346 349 348 346 345 344 345 344 343 343 342 343 341 340 339 339 340 339 339 339 339 338 334 335 336 335 336 335 335 333 333 334 335 335 336 337 337 336 336 334 334 333 332 332 332 333 333 333 333 333 334 335 335 333 331 330 330 329 329 329 328 328 326 323 322 322 326 330 331 328 326 326 326 325 324 324 325
314 318 316 314 316 316 318 316 314 314 314 315 314 314 314 315 313 320 343 346 348 359 350 345 347 345 343 342 343 343 342 342 340 339 339 339 339 339 339 339 338 337 336 337 334 331 333 332 333 332 329 332 334 334 335 337 337 335 335 334 333 333 333 334 334 334 333 333 333 334 335 335 335 333 331 331 329 328 329 328 327 327 324 320 319 319 322 327 330 329 327 327 327 326 325 324 325
314 316 314 315 317 316 317 314 314 315 313 315 314 314 313 315 313 319 342 346 348 358 353 350 350 347 345 343 343 344 342 342 340 339 339 339 339 339 339 339 338 337 336 334 332 331 332 331 331 330 330 332 332 332 334 336 336 335 334 333 333 333 335 335 334 335 334 333 333 334 335 335 333 333 332 331 330 329 328 328 326 325 322 319 319 319 319 323 328 329 328 327 327 326 326 325 324
312 313 314 317 315 314 316 314 315 314 312 313 313 314 315 314 314 324 341 344 345 350 349 351 349 346 345 344 344 342 342 341 340 339 339 339 339 339 339 338 337 336 334 333 333 333 331 329 330 331 331 331 330 330 331 334 335 334 334 333 334 334 336 336 335 335 334 333 333 333 334 334 332 332 332 332 331 330 328 328 327 324 321 320 320 321 321 321 326 329 328 326 325 325 325 325 324
312 312 315 316 312 312 314 314 314 313 313 313 313 314 314 314 314 324 332 332 340 348 346 346 344 343 343 344 343 341 341 341 341 340 339 339 340 339 339 338 337 335 335 335 335 332 329 329 330 332 331 329 330 329 330 333 334 333 332 332 334 335 336 337 335 334 334 333 333 333 333 332 332 331 331 331 331 330 329 329 327 324 322 323 323 323 325 325 325 326 327 325 324 324 324 325 325
313 314 314 313 311 311 311 313 313 314 313 312 315 313 314 317 313 322 332 328 332 345 347 344 342 342 342 343 342 340 341 341 340 340 339 340 339 339 338 338 337 336 336 336 334 330 329 331 333 331 330 330 329 329 330 332 334 333 331 332 333 334 336 336 335 334 334 334 333 332 332 332 331 330 331 331 333 332 331 330 329 327 325 325 326 325 328 329 328 326 325 324 324 322 322 325 326
312 313 313 312 311 311 312 312 311 314 313 312 315 312 316 315 310 332 352 346 339 345 346 343 342 342 342 342 341 340 339 339 339 339 339 339 338 338 338 337 337 336 337 336 333 331 333 336 336 333 331 330 330 330 331 331 334 333 333 335 335 334 336 336 335 334 335 335 334 333 332 332 332 331 331 332 333 333 332 331 331 331 328 327 327 328 329 330 331 330 326 324 323 323 325 328 329
311 311 312 311 311 311 311 311 311 312 311 312 312 312 317 313 322 344 354 348 345 346 344 343 343 342 342 341 341 340 338 337 337 337 338 337 337 337 337 336 336 336 337 337 334 335 338 339 339 336 333 331 332 333 333 333 333 335 335 336 336 335 336 335 335 336 336 335 335 334 333 333 332 332 332 333 334 334 333 331 332 333 331 329 328 329 330 330 331 332 329 324 324 326 328 330 330
312 310 311 310 311 312 311 311 312 312 311 313 311 313 316 313 336 352 346 346 346 344 344 344 343 342 342 341 340 339 337 337 335 335 336 336 336 336 336 336 335 336 336 337 337 338 340 340 340 339 335 334 335 336 336 335 334 336 336 336 336 336 336 336 336 337 337 336 336 336 336 335 334 334 334 334 334 334 334 333 333 334 333 331 330 330 330 332 331 331 330 326 326 329 330 330 330
311 311 311 310 311 310 310 311 311 311 311 315 312 316 315 310 341 358 345 347 346 344 346 343 344 343 341 341 338 337 336 336 334 334 334 334 335 335 336 336 336 336 336 336 338 340 341 341 342 341 339 338 338 338 338 337 336 336 336 337 337 336 336 337 337 337 336 336 336 336 337 337 336 335 334 334 334 334 334 334 334 334 333 332 332 331 331 332 331 331 330 329 329 330 330 330 330
312 313 312 313 313 309 310 311 311 312 310 315 313 313 314 309 337 360 347 346 345 344 346 342 344 343 340 340 337 336 336 334 333 333 334 333 334 335 336 337 336 336 336 337 339 341 341 342 342 341 341 340 340 340 339 339 338 338 338 338 337 337 337 337 337 336 335 335 335 335 336 336 336 336 335 335 334 334 334 334 333 333 333 333 333 333 332 332 332 331 330 330 330 330 330 330 330
313 313 314 315 314 311 313 313 312 313 311 316 313 311 316 309 326 351 347 345 345 344 345 343 342 341 340 339 336 336 335 333 333 333 334 334 334 335 336 336 336 336 336 337 339 341 341 342 341 341 342 342 341 341 339 340 339 339 339 338 338 337 337 338 337 337 336 335 335 335 335 335 336 335 335 334 334 334 334 333 333 332 333 333 333 333 332 332 332 332 331 330 330 331 331 330 330
314 312 313 315 315 315 314 312 312 312 313 314 312 313 317 316 328 347 348 344 345 345 345 343 341 340 338 337 336 336 335 333 333 332 334 334 334 335 335 335 335 336 337 337 340 341 341 342 341 342 342 341 341 340 339 339 339 339 338 338 338 338 338 337 337 337 337 336 336 335 335 335 335 335 334 334 334 334 333 332 332 333 333 333 332 332 332 332 332 332 331 330 331 331 331 330 330
314 312 315 314 312 316 315 314 315 312 313 313 312 312 313 327 340 349 347 344 346 347 346 343 341 340 338 337 337 336 335 333 332 333 333 334 334 334 333 334 334 335 336 337 339 340 341 342 341 341 341 341 339 338 337 338 338 337 337 338 338 337 336 336 336 337 336 336 335 335 335 335 335 334 334 334 334 333 333 332 332 333 333 332 332 332 332 332 333 332 331 330 331 330 330 330 330
317 311 319 321 312 313 317 315 316 313 313 312 313 312 313 333 349 347 344 346 346 347 347 343 342 340 339 338 337 336 335 332 332 333 333 333 333 333 333 333 334 335 335 337 337 338 341 341 341 340 339 339 337 336 336 336 336 336 336 336 335 335 335 335 334 334 335 334 334 335 334 334 334 334 334 334 333 333 332 332 333 333 333 333 332 332 333 333 333 332 331 330 330 330 329 329 329
327 315 317 324 316 313 315 313 314 313 313 312 312 314 314 330 346 346 345 346 345 347 347 343 343 341 339 338 336 336 335 333 333 332 332 333 333 333 334 334 335 335 335 336 336 337 338 339 340 339 337 336 335 335 335 335 335 335 335 333 333 334 333 333 333 333 333 333 334 334 334 333 333 333 334 333 333 332 332 332 333 333 333 334 333 333 333 334 333 332 331 330 330 329 329 329 329
328 325 321 322 318 313 314 315 315 312 312 312 311 315 314 320 338 346 345 344 344 346 346 344 343 341 339 337 336 336 335 336 334 332 332 333 333 334 334 334 335 335 334 335 336 336 337 338 339 338 336 335 334 334 334 334 335 334 334 333 333 332 331 332 332 332 332 332 333 334 333 333 333 333 333 333 333 332 332 333 332 332 333 333 333 333 333 334 333 333 331 330 329 329 329 329 329
319 323 321 321 321 315 314 316 315 313 312 313 312 314 313 319 336 346 344 343 344 344 343 343 342 340 338 336 336 336 336 337 334 332 332 332 333 334 334 334 334 333 334 335 334 334 336 337 337 337 336 335 334 333 332 332 333 334 333 333 332 330 331 331 331 332 332 332 333 333 332 332 332 332 332 332 332 332 332 333 333 333 333 333 332 332 332 333 334 333 331 330 329 329 329 329 329
315 316 318 319 321 317 316 316 315 314 312 313 314 311 315 328 340 345 343 342 341 341 341 341 341 339 337 337 336 336 336 337 333 330 332 333 332 333 333 332 333 333 334 335 333 333 334 335 335 335 335 334 333 331 330 331 333 333 332 332 330 330 330 331 331 331 331 331 331 331 331 331 331 331 332 332 331 332 332 333 333 333 332 332 332 332 332 332 333 332 331 330 329 329 330 329 329
314 315 319 319 318 316 316 317 316 316 312 313 314 312 321 336 343 344 343 341 340 340 340 340 340 339 337 337 337 336 337 334 329 329 332 332 332 332 332 332 332 332 333 334 332 331 333 333 333 334 333 332 331 330 330 330 331 331 331 330 329 328 330 330 331 330 330 330 330 330 330 330 330 330 330 331 330 331 332 331 331 331 331 332 332 332 331 332 332 330 330 330 329 330 330 330 329
315 317 319 318 318 318 315 317 319 318 314 314 315 315 320 329 335 340 340 338 339 341 340 339 338 338 337 337 337 336 335 332 329 329 330 331 332 331 331 331 332 331 332 333 331 331 332 331 332 332 331 330 329 329 329 328 328 329 329 330 329 327 328 328 329 329 329 329 330 329 329 328 328 328 328 328 328 329 330 329 330 330 331 331 331 331 330 331 331 329 328 330 330 330 330 329 329
319 318 318 317 318 317 317 322 325 322 318 315 317 315 316 322 328 334 338 337 338 338 338 339 338 338 337 336 337 336 335 333 331 331 329 329 330 331 331 331 331 331 331 331 331 331 330 330 330 329 329 329 328 328 327 327 327 328 329 329 329 327 327 327 327 328 328 328 328 327 327 326 326 327 327 327 326 327 329 329 329 330 330 330 330 330 330 330 329 327 327 329 329 329 328 328 328
322 318 313 316 318 314 315 323 327 328 323 319 322 321 322 327 324 325 331 333 335 335 335 337 336 336 336 335 335 335 335 334 332 332 330 328 328 330 331 330 330 331 330 330 329 330 329 329 328 327 328 327 327 326 325 325 326 328 329 329 328 327 327 327 326 326 326 326 325 324 324 324 325 326 326 326 325 325 328 329 329 330 330 330 330 330 331 331 329 326 328 329 328 328 326 326 327
330 326 316 318 320 316 315 320 328 336 331 327 332 329 324 327 322 319 324 327 332 334 333 335 335 335 333 332 334 334 334 333 331 331 331 329 327 328 330 330 330 329 329 329 329 329 328 327 327 326 326 325 325 324 324 324 324 326 328 329 328 327 326 326 324 324 323 323 322 322 322 321 323 324 324 326 325 324 327 329 329 329 329 330 329 329 330 331 330 328 328 328 327 327 326 325 326
328 331 326 323 321 320 319 323 331 333 326 321 324 321 320 327 327 321 321 326 334 334 334 335 334 335 334 333 334 333 333 332 330 329 330 329 327 328 330 330 330 329 330 329 327 328 327 327 327 325 325 324 324 324 323 323 322 323 326 328 327 325 324 324 323 322 322 322 321 321 321 321 322 323 324 326 326 324 326 327 327 327 328 328 328 328 329 330 330 329 328 327 326 326 325 324 325
319 328 332 326 322 320 321 326 328 323 320 321 323 323 324 328 327 322 323 329 336 333 332 333 333 334 334 334 334 333 333 333 331 329 329 329 326 327 330 330 330 329 329 329 328 328 327 326 325 324 324 324 324 324 322 322 321 323 325 325 325 325 324 323 322 322 322 321 321 321 320 320 321 322 323 324 324 325 325 324 324 324 325 326 326 328 329 329 329 329 328 327 327 326 325 325 325
319 326 329 325 322 320 324 330 324 321 322 324 332 333 325 324 325 324 323 325 333 334 333 332 331 332 333 333 333 332 333 333 332 330 330 329 326 327 329 330 330 330 330 330 329 329 328 325 323 322 322 324 324 323 323 322 322 324 326 325 325 324 323 321 320 321 321 321 321 321 320 319 319 320 321 322 323 324 323 321 321 322 323 325 325 326 327 328 328 328 328 328 327 326 326 326 325
324 328 323 320 323 325 332 332 324 327 322 318 333 332 319 327 335 329 324 320 324 330 331 331 331 331 331 331 333 332 332 332 331 330 330 328 326 327 330 330 330 330 331 331 330 329 327 323 319 321 322 324 325 323 323 323 323 324 326 325 323 321 319 318 319 320 321 320 320 320 319 319 318 319 319 321 322 323 321 320 320 321 323 324 325 325 325 325 325 325 326 327 327 327 326 326 326
324 324 320 320 327 331 335 332 327 333 325 318 332 328 315 329 342 337 326 317 319 326 329 328 326 328 329 329 332 333 331 331 330 330 329 326 325 327 329 330 330 330 331 331 330 330 328 322 318 320 324 325 325 324 324 324 323 324 324 323 321 319 318 318 319 321 320 320 320 320 319 318 318 318 318 318 320 320 320 319 320 320 322 323 323 324 323 323 322 322 324 324 325 326 325 326 325
318 320 320 320 326 332 338 339 330 326 325 325 332 330 318 324 337 338 327 317 318 322 327 326 321 323 327 328 331 333 331 330 330 332 328 324 324 326 328 329 330 330 330 331 331 329 329 325 319 320 324 326 325 324 324 324 323 323 323 321 320 318 317 318 320 322 320 320 320 319 319 318 317 317 316 317 318 319 319 318 319 320 320 321 322 322 322 321 321 321 322 323 323 322 322 322 322
318 324 322 316 322 328 332 336 329 322 326 330 332 329 319 320 328 332 331 327 323 321 323 326 321 321 326 329 331 331 331 329 330 332 330 326 326 326 327 329 329 329 330 331 331 330 329 327 324 322 324 324 323 322 323 323 322 322 322 320 319 318 317 317 319 320 320 320 319 319 318 317 316 315 315 316 317 316 316 315 315 318 320 320 320 321 321 321 321 321 322 322 320 318 316 316 318
320 325 326 320 321 323 325 329 328 328 326 324 329 326 319 325 329 327 329 328 322 319 320 322 322 322 327 330 330 330 329 328 330 331 330 330 331 326 325 328 328 329 330 330 331 331 330 329 326 324 323 323 322 322 322 322 321 321 321 320 319 318 317 316 317 318 320 320 319 319 317 314 314 314 314 314 313 313 313 311 310 314 318 318 318 319 319 319 320 320 321 320 318 315 314 314 315
316 320 324 322 322 321 324 326 322 324 323 321 326 323 319 327 324 322 326 321 317 318 320 325 326 325 328 328 328 329 329 329 330 330 331 332 329 325 324 327 327 328 329 330 331 331 330 329 326 325 323 323 322 322 322 322 321 320 320 320 318 318 318 317 316 316 318 320 319 319 315 312 312 313 313 313 312 311 311 310 309 312 313 313 313 313 314 314 314 315 317 318 317 314 312 313 314
315 318 318 319 326 324 322 324 322 321 323 323 320 318 324 326 316 318 322 318 319 322 324 328 328 326 328 327 328 329 329 330 331 332 333 331 326 323 325 326 327 327 329 329 330 330 331 328 326 325 323 322 321 321 321 322 320 319 320 319 317 318 318 317 316 314 315 318 319 317 314 311 311 313 313 312 312 311 310 310 311 312 311 310 308 307 307 306 306 307 309 311 311 309 308 310 311
313 314 313 314 321 326 322 319 325 328 325 323 319 320 330 326 315 318 322 318 322 325 326 328 328 327 328 327 328 328 328 331 332 334 336 332 325 323 325 325 326 327 328 329 329 329 331 328 326 325 324 322 320 320 321 321 319 318 319 319 318 319 318 317 317 315 314 316 318 316 313 310 311 312 312 312 312 311 310 311 312 312 311 310 306 305 304 304 303 303 303 304 304 303 305 307 309
315 311 314 315 315 325 325 316 322 329 325 323 321 320 327 325 318 320 323 321 321 323 326 328 328 328 328 328 328 328 329 330 331 335 338 333 325 324 325 325 326 327 327 328 329 329 330 328 325 325 324 322 320 320 319 318 319 318 318 319 319 319 319 318 318 316 314 316 317 316 313 311 312 311 311 312 312 311 310 311 311 311 312 311 309 306 305 303 303 303 303 303 302 302 302 305 306
316 312 316 316 312 321 329 324 325 324 321 326 322 316 321 324 323 323 323 322 321 322 326 326 328 329 328 328 327 327 328 328 328 331 333 329 324 324 326 325 325 326 326 327 328 329 329 328 326 325 324 323 321 320 319 318 319 318 318 320 319 319 319 319 319 316 314 316 318 317 313 312 312 311 310 311 311 311 311 311 311 311 312 312 311 310 307 305 303 304 304 303 303 302 303 304 306
312 312 313 315 317 321 322 322 325 321 320 323 319 318 321 320 321 323 322 322 322 322 324 324 326 327 327 327 326 326 326 327 328 329 331 330 325 324 327 326 325 326 326 326 327 327 328 327 326 325 323 322 321 320 320 318 319 319 319 321 320 320 320 318 318 318 316 316 317 316 313 311 312 311 310 311 311 310 310 311 311 310 311 312 312 312 311 308 305 304 306 306 305 304 303 305 306
313 315 316 318 325 326 319 319 323 323 322 320 318 321 325 324 324 323 322 325 324 322 324 324 325 326 326 326 325 326 326 327 327 326 328 330 324 324 328 327 327 326 324 325 325 325 326 326 326 324 323 321 320 320 320 319 319 319 319 320 319 320 319 314 315 319 318 317 316 315 313 311 312 311 309 310 312 311 309 309 310 310 310 311 311 311 311 310 307 306 308 308 308 308 306 305 306
313 317 320 318 318 317 316 317 318 322 327 326 324 323 326 332 329 323 324 325 322 321 325 326 325 325 327 325 325 325 324 324 325 324 328 327 322 323 327 327 327 326 324 324 324 324 325 325 325 324 323 322 320 320 320 320 320 319 317 318 319 320 317 312 314 319 319 318 317 315 314 314 313 311 310 311 312 312 310 308 309 310 310 310 310 311 311 310 309 309 309 308 309 309 308 306 307
310 314 315 315 318 317 317 316 315 323 329 327 326 324 327 333 327 322 325 324 320 321 325 327 324 323 325 325 324 324 323 322 323 323 326 323 318 319 322 323 324 324 324 324 324 324 324 324 325 324 324 323 321 320 320 320 321 319 317 319 320 319 317 314 315 319 319 319 318 315 315 316 315 313 311 310 310 312 312 308 307 307 309 310 310 309 309 309 309 310 311 310 309 309 308 307 308
Wind_Speed
4 1 1 2 1 1 1 3 1 2 2 1 3 1 4 5 2 3 5 3 1 2 3 1 4 5 6 7 9 7 7 2 3 5 3 3 17 26 22 23 30 33 32 29 26 23 19 19 21 22 23 23 23 22 22 21 21 20 20 20 20 20 21 21 20 20 19 19 19 19 19 19 18 17 17 16 15 15 14 14 14 14 15 16 15 15 15 15 15 14 13 13 14 14 14 15 16
3 2 3 2 2 1 1 3 2 2 3 2 4 3 4 4 3 5 7 4 4 3 1 7 9 9 9 9 7 5 8 5 2 3 2 13 21 19 21 27 34 36 34 30 29 25 21 20 20 22 22 23 23 22 22 21 21 20 20 20 20 19 20 20 20 20 19 19 18 18 18 18 17 17 16 16 15 14 14 13 14 14 15 16 15 14 14 16 15 13 13 14 14 14 15 15 17
3 3 3 1 2 3 1 3 2 1 3 3 5 3 3 3 5 6 6 4 7 7 4 6 7 5 5 6 4 4 3 2 4 4 5 18 17 17 26 30 35 34 31 28 27 26 23 22 21 22 21 22 22 22 22 21 21 21 20 20 20 19 19 19 19 19 19 18 18 17 17 16 16 16 15 15 15 14 14 14 13 13 14 14 14 13 13 14 14 13 14 14 14 14 15 16 17
2 2 2 1 2 3 3 3 2 4 2 4 3 5 3 4 6 3 6 2 6 7 4 3 4 3 4 8 4 5 5 3 4 3 5 13 15 23 30 31 33 31 28 24 24 24 23 24 22 21 21 22 22 21 22 21 21 21 20 20 19 19 19 19 18 17 17 17 17 17 16 15 15 15 15 15 14 15 15 14 13 13 14 13 13 13 13 14 14 12 12 12 12 13 15 16 17
1 1 1 2 2 1 2 2 2 3 4 4 1 6 4 6 5 4 5 3 4 4 2 3 4 2 2 6 2 3 6 5 3 3 6 11 20 28 30 32 33 29 26 22 22 23 22 23 22 22 21 21 22 21 21 21 21 21 21 20 19 19 18 18 17 17 16 16 16 16 15 14 14 14 14 14 14 14 15 14 14 13 13 13 12 12 12 12 12 12 10 10 11 12 14 15 15
1 2 2 3 2 1 2 1 2 3 5 4 3 6 6 8 5 4 4 3 3 4 4 1 5 4 3 3 2 3 2 5 5 4 9 15 25 30 30 32 30 26 23 22 22 22 22 22 22 21 20 21 22 21 22 22 21 21 21 20 19 18 18 17 17 16 15 15 14 14 14 13 13 13 13 13 13 13 14 14 14 13 13 12 12 12 11 10 10 10 9 10 10 12 13 12 13
2 2 2 3 1 1 3 3 4 5 5 4 3 6 9 12 6 5 5 2 3 4 4 1 7 7 3 2 2 5 5 4 6 7 11 20 27 28 28 28 26 22 19 21 22 21 22 21 22 21 21 22 22 22 23 23 22 21 21 20 19 18 17 17 16 16 15 15 14 13 13 13 13 13 13 12 13 13 13 13 13 13 12 11 11 10 10 9 8 8 9 10 10 12 12 10 10
2 1 0 3 1 2 3 3 4 4 4 4 4 6 10 13 8 7 5 1 2 2 2 3 5 6 2 2 3 5 7 5 6 10 15 22 25 24 24 24 23 19 16 18 20 21 21 21 22 22 21 21 22 23 23 23 22 22 21 20 19 18 17 16 16 15 15 14 13 13 13 14 13 13 13 13 13 13 13 13 13 12 11 11 10 9 8 7 7 7 8 9 10 11 10 9 9
4 2 1 3 2 1 1 3 4 3 4 5 5 7 10 11 8 7 6 3 3 2 3 1 3 5 3 5 4 2 6 8 13 18 20 24 24 22 21 22 22 19 18 18 17 17 19 21 22 21 21 20 21 21 22 22 21 22 21 20 19 18 17 16 16 16 15 14 14 14 14 14 13 13 12 12 13 13 13 12 12 11 10 10 9 8 7 6 5 6 8 9 10 11 10 9 9
3 2 2 2 2 1 3 3 3 3 5 5 6 10 11 10 8 8 7 4 4 5 4 4 7 8 8 5 3 2 4 12 22 22 22 26 24 22 22 24 24 23 23 21 18 16 16 17 18 19 18 18 18 18 19 20 20 21 21 20 19 18 17 16 16 16 15 15 14 14 14 14 13 12 12 12 12 12 12 12 11 11 10 9 8 7 6 5 5 6 7 8 9 10 11 11 10
3 3 3 3 3 1 4 3 4 4 6 5 7 11 10 8 6 8 4 4 3 6 6 6 9 9 9 5 2 2 7 15 21 22 24 26 23 23 25 26 25 25 25 22 20 17 15 14 15 17 17 16 17 17 18 19 20 20 20 19 18 18 17 17 17 16 15 15 15 15 14 14 12 12 11 11 11 11 11 11 10 10 9 9 8 7 6 6 6 7 7 7 8 9 10 10 10
2 2 4 4 2 3 4 2 5 5 7 5 6 9 7 5 3 6 5 7 6 6 4 3 7 8 8 3 1 5 9 12 18 24 25 24 23 24 25 26 25 24 24 20 19 18 16 14 14 14 16 17 17 17 18 18 19 20 20 19 18 17 17 17 16 15 15 15 14 14 13 13 12 11 11 10 10 10 10 9 9 8 9 9 9 8 7 7 7 7 7 6 7 8 9 8 9
3 2 4 2 3 3 3 2 4 5 6 4 5 7 8 5 1 7 7 7 6 6 2 6 10 6 5 2 3 6 7 12 20 24 23 24 24 25 26 26 25 24 23 21 19 19 17 15 14 13 15 17 16 17 18 18 19 19 19 18 17 16 16 16 16 15 15 14 13 13 13 12 12 11 10 10 10 9 9 8 8 8 8 8 8 8 8 7 6 6 6 5 6 7 8 7 8
2 2 4 1 1 2 2 2 3 2 4 5 3 7 9 3 1 4 7 8 3 3 5 8 10 7 5 3 3 4 7 15 21 22 23 25 25 26 27 27 26 23 23 22 19 18 19 16 15 14 15 16 16 17 17 18 19 19 19 18 17 16 16 16 15 15 14 13 12 12 11 11 11 10 10 10 10 9 8 8 8 8 7 7 8 8 7 6 6 5 5 4 5 6 6 7 7
3 1 4 2 2 1 2 3 2 3 4 5 4 6 9 4 3 2 5 7 2 3 7 5 4 5 6 8 5 6 11 19 22 23 24 24 26 27 27 28 26 22 21 22 18 17 19 18 17 16 16 16 17 17 18 18 18 19 18 17 17 16 16 16 15 14 13 12 11 11 10 9 9 9 9 9 10 9 8 8 7 7 6 6 7 7 7 6 5 5 4 4 4 6 5 6 7
3 2 4 1 2 2 2 3 3 3 5 6 6 6 8 8 2 3 2 5 6 3 5 1 3 1 9 10 8 15 19 22 24 25 24 24 26 27 26 27 25 23 22 21 19 18 18 19 18 17 16 16 17 18 18 18 18 18 18 17 17 16 16 15 14 13 12 11 10 10 9 9 9 9 9 9 9 9 8 8 7 6 5 5 6 6 6 6 5 5 4 3 4 5 4 4 7
2 4 3 1 3 3 3 3 3 3 6 7 7 8 6 7 5 4 4 8 10 4 6 2 4 2 7 7 16 26 24 25 28 26 24 24 24 25 25 25 25 23 24 22 20 20 19 18 18 17 16 16 17 18 18 18 18 18 17 17 16 15 15 14 13 12 11 11 10 10 9 9 9 9 9 9 9 8 8 7 6 6 5 5 4 4 5 6 6 5 4 3 3 4 4 3 6
2 3 2 3 3 3 5 5 3 2 5 6 7 8 4 4 4 2 6 9 7 7 7 4 8 10 10 16 25 28 26 28 28 25 22 20 21 23 22 22 23 22 23 23 20 20 21 20 20 20 17 15 16 18 19 19 18 18 17 16 15 14 14 13 13 12 12 11 11 10 10 9 9 9 8 9 9 8 8 7 6 5 5 4 4 3 4 5 5 5 4 3 2 3 3 3 5
3 3 2 4 4 4 5 5 3 3 6 8 7 6 3 1 2 1 4 3 4 8 6 6 10 12 14 20 24 23 25 27 25 25 20 17 20 21 20 20 21 21 23 24 23 24 24 24 23 23 21 19 20 19 20 20 19 18 17 16 15 14 12 12 12 12 12 11 11 10 10 10 9 8 8 7 8 8 7 7 6 5 5 4 4 3 3 4 5 5 4 3 2 2 3 3 4
2 3 3 5 5 5 5 6 7 7 6 8 7 4 4 4 2 2 4 4 3 4 4 6 9 10 12 16 18 18 21 22 23 24 18 17 20 20 20 22 23 24 27 28 28 28 26 26 24 23 23 23 23 21 21 20 19 18 17 16 15 14 13 13 12 12 11 11 11 10 10 10 10 9 8 7 7 8 7 7 7 6 5 5 4 3 3 4 5 6 5 4 3 3 2 2 4
1 3 5 5 4 4 7 8 8 7 4 5 8 6 6 6 1 3 7 5 3 3 5 8 14 14 15 15 14 15 17 17 19 20 17 19 20 19 20 23 26 29 31 31 29 29 27 25 24 25 26 26 23 21 21 20 19 18 17 16 15 14 13 13 12 11 11 10 10 10 11 11 10 10 9 8 8 8 8 7 7 6 6 4 4 2 2 4 5 6 6 5 4 4 3 1 3
1 3 6 6 3 3 8 7 6 5 4 3 5 6 6 3 3 3 8 5 4 5 5 9 17 19 18 16 13 13 14 13 14 16 17 18 19 19 20 22 26 29 30 29 30 30 28 26 26 27 27 25 23 21 21 20 19 18 17 16 15 14 13 13 12 11 10 11 11 11 11 11 11 10 10 9 8 8 8 8 7 7 6 4 3 2 1 3 4 5 5 5 4 4 3 1 1
2 4 4 6 5 5 8 6 5 4 3 4 2 4 3 4 4 2 6 4 6 4 8 10 14 16 17 16 14 14 13 12 13 16 19 19 20 21 23 24 27 29 29 29 31 30 29 28 28 28 27 25 23 20 20 19 18 18 17 16 15 14 14 13 13 12 11 11 12 11 12 11 11 11 11 10 9 9 9 9 7 7 6 5 4 3 2 2 2 3 4 4 4 4 3 2 1
4 5 5 7 6 6 9 8 7 5 5 7 2 3 3 2 5 1 3 2 3 8 12 12 12 13 14 14 13 13 12 12 13 17 20 22 24 26 26 27 30 29 27 29 30 29 29 29 28 27 25 23 22 20 19 19 18 17 15 14 14 14 14 14 13 12 11 12 12 12 12 12 11 12 12 10 9 10 10 9 8 8 7 6 5 4 3 3 2 2 3 4 5 4 2 1 2
4 6 5 5 5 7 10 8 9 7 7 6 2 4 7 5 0 4 4 2 7 12 14 13 13 13 13 13 13 12 11 12 13 16 17 20 24 24 24 25 26 26 26 29 31 29 28 26 25 24 23 22 21 20 19 18 17 16 15 14 13 13 14 14 13 13 13 13 13 13 13 13 12 12 11 11 10 10 10 10 9 8 8 7 7 6 5 4 2 2 3 5 6 5 2 1 2
5 7 5 5 7 8 8 8 9 8 5 3 4 7 9 5 4 4 4 2 7 12 14 14 15 14 12 12 12 12 11 12 13 15 16 19 21 20 21 22 24 25 26 27 26 25 24 23 22 22 22 21 20 19 18 17 16 16 15 15 14 14 14 15 15 15 15 15 15 14 14 14 13 12 11 11 11 11 11 11 10 9 9 8 8 7 6 4 3 3 4 6 7 5 3 1 1
5 4 5 6 9 10 6 7 8 5 4 5 8 8 8 3 4 1 1 5 8 12 13 12 14 13 13 12 10 10 11 13 15 16 15 16 18 20 22 22 24 23 21 21 20 18 20 21 21 21 21 21 19 18 17 16 15 15 15 15 15 15 16 16 17 17 17 17 16 15 15 15 14 13 12 11 11 12 12 11 10 10 10 9 9 8 7 6 4 4 4 6 6 6 4 3 2
4 3 5 8 8 8 5 6 7 3 3 6 9 5 4 2 3 6 7 8 10 13 12 11 13 12 12 11 9 8 8 12 17 17 15 16 19 21 22 22 22 18 16 18 17 16 19 21 21 20 20 19 17 15 15 15 14 14 15 15 16 16 16 17 18 18 18 18 17 16 15 15 15 14 12 11 11 12 13 11 11 11 11 11 11 11 10 8 6 5 5 6 7 6 5 5 4
4 2 3 8 7 6 7 5 5 5 3 6 8 1 4 3 3 8 11 11 10 12 12 11 11 11 10 9 8 6 7 10 14 15 17 20 20 22 22 20 18 14 13 15 14 17 20 20 20 19 18 16 14 13 13 14 14 14 15 16 17 17 16 17 18 20 19 18 17 16 15 14 15 14 13 13 13 13 13 11 11 11 11 11 12 12 11 10 8 7 6 7 8 7 6 6 5
4 1 2 5 7 6 7 2 2 4 3 6 7 2 6 6 5 11 12 12 13 12 12 10 9 8 7 7 7 7 7 8 11 14 19 20 20 22 20 17 16 14 14 15 15 18 20 19 19 17 16 14 12 12 13 14 14 15 15 16 17 16 16 16 16 18 19 18 17 16 16 15 15 15 13 13 13 13 12 10 11 11 10 11 11 11 11 11 10 9 8 8 8 7 6 5 5
3 2 1 2 2 5 8 3 1 1 3 5 7 4 6 4 7 12 12 14 17 16 14 11 8 7 7 7 8 7 6 7 10 15 19 20 19 20 18 16 17 15 16 18 17 20 21 19 18 16 15 14 13 13 13 13 14 14 14 14 15 15 15 14 14 15 17 16 14 14 15 15 14 14 12 12 12 12 11 11 11 11 10 9 10 11 11 11 11 10 8 8 8 7 6 5 4
3 2 3 3 1 4 9 5 3 4 5 2 6 4 3 5 11 12 12 14 16 15 13 11 9 8 8 7 7 7 5 6 10 14 17 17 17 18 17 16 17 16 17 18 17 20 22 19 17 16 15 15 14 14 13 13 13 14 13 12 12 13 13 13 13 13 14 13 13 13 13 13 12 12 12 12 12 11 11 12 12 11 10 10 10 11 11 11 11 9 9 10 9 8 8 7 6
3 1 3 4 1 3 6 6 4 7 4 1 4 5 1 5 11 11 12 13 12 12 10 10 9 8 8 7 7 6 6 6 8 11 14 16 17 18 17 16 18 19 19 20 20 21 22 20 18 16 15 16 15 15 14 13 13 13 12 10 9 10 10 12 12 12 12 11 11 10 10 10 10 11 12 13 12 11 12 13 13 12 11 11 11 11 12 12 11 10 10 10 11 11 10 9 9
4 2 1 4 2 2 3 6 6 4 6 4 4 5 3 4 9 11 11 11 10 9 9 9 8 7 7 7 6 6 7 7 7 9 13 16 17 18 16 16 18 18 18 21 22 22 22 21 20 18 17 17 16 15 14 13 13 13 11 9 7 7 7 9 9 9 10 10 9 8 8 8 8 9 11 12 12 12 13 12 12 11 10 10 11 11 13 13 12 11 11 10 11 12 12 10 10
2 2 2 3 3 2 3 5 5 2 3 5 5 5 4 3 9 11 9 9 8 9 12 12 10 8 7 6 6 6 8 8 7 9 14 15 15 17 16 14 16 17 17 20 20 20 21 22 21 20 18 18 16 14 13 14 14 14 12 9 7 7 7 7 7 7 7 7 7 7 7 7 6 6 8 10 10 11 12 11 10 9 8 9 11 11 12 13 13 13 11 10 11 12 11 10 10
4 2 2 3 5 4 5 7 6 3 4 5 6 5 2 6 9 10 8 7 7 9 10 9 8 7 6 5 6 7 8 8 8 13 16 16 16 17 16 15 17 18 19 21 21 21 22 22 22 21 20 19 17 16 16 16 16 14 12 10 8 7 7 6 5 4 4 4 4 5 5 4 4 4 7 8 7 8 9 10 9 8 9 10 11 12 13 13 14 13 11 12 13 13 11 10 9
3 2 3 5 5 6 6 6 6 1 4 5 4 6 5 8 9 9 9 7 7 7 6 6 7 8 8 8 8 8 8 6 7 14 18 18 18 18 16 16 18 18 20 23 23 23 24 23 22 22 21 20 20 20 19 19 18 15 13 11 9 8 8 6 5 4 3 2 2 3 4 4 3 4 6 6 5 5 6 7 8 8 10 11 11 12 12 13 14 12 12 13 14 14 13 11 9
3 3 4 4 4 6 6 5 7 2 3 3 2 8 6 7 9 8 9 8 8 8 8 9 9 9 8 9 10 8 5 3 5 10 13 17 18 18 17 17 19 20 22 26 26 25 24 24 24 24 23 22 22 21 20 20 18 16 14 12 11 10 9 8 8 6 5 4 4 3 3 4 4 5 5 4 3 3 4 4 5 7 8 9 9 9 10 13 14 13 12 14 14 13 13 12 11
3 2 2 3 4 5 7 5 6 4 3 2 1 9 5 3 4 7 11 12 10 9 12 12 12 12 10 11 10 7 6 5 6 7 10 15 17 19 20 19 20 22 25 27 28 27 26 26 26 26 25 23 21 20 20 19 17 16 15 14 13 12 10 9 8 8 6 5 4 2 2 1 2 4 5 5 4 3 3 3 4 4 5 6 7 8 10 12 14 13 13 14 14 13 11 12 12
2 3 3 3 4 1 4 6 7 6 2 2 4 7 2 3 1 5 9 8 3 4 8 7 9 11 10 11 10 10 11 9 8 8 8 12 16 19 22 21 21 23 25 27 28 29 29 28 27 27 25 23 21 19 18 17 16 16 15 15 15 13 11 10 8 7 7 6 5 4 3 3 3 4 4 5 4 4 3 4 5 5 5 5 6 8 11 12 12 12 13 14 14 13 10 9 11
3 5 5 3 4 3 4 4 6 6 5 3 6 6 3 3 2 6 6 4 2 2 5 5 6 7 5 6 8 10 11 10 11 11 11 11 13 18 22 23 23 24 26 29 30 31 31 30 28 27 25 23 21 20 18 16 16 17 17 16 14 13 13 12 10 9 9 8 6 4 4 4 4 5 4 5 5 4 4 5 5 5 5 5 5 6 10 12 10 10 11 10 10 10 9 9 9
4 5 7 7 5 4 4 4 5 5 5 4 5 5 3 5 1 6 3 3 4 3 7 9 7 5 5 6 7 8 7 7 9 11 11 10 11 17 22 23 23 23 27 31 33 33 31 30 29 28 27 25 23 20 19 18 18 19 19 19 16 15 15 14 12 10 9 8 6 4 3 4 5 5 6 6 5 4 5 5 5 5 5 5 5 5 7 8 8 8 8 8 7 6 7 9 9
2 5 7 7 5 2 3 2 4 3 1 3 3 5 2 5 3 5 3 5 7 4 8 9 6 6 7 6 7 7 6 5 5 6 8 9 12 17 21 24 25 25 27 31 33 32 31 31 31 30 28 26 24 22 20 20 21 21 22 22 20 18 17 15 13 11 9 7 6 5 4 6 5 5 6 6 6 5 5 5 4 4 5 5 5 6 6 5 5 5 3 5 7 5 6 9 11
3 5 6 6 5 3 2 5 5 2 2 3 5 5 3 2 4 6 3 5 6 6 9 8 6 8 8 6 7 7 7 7 6 7 8 8 12 17 22 26 27 27 27 30 32 32 33 33 32 30 28 27 26 23 22 21 23 24 24 23 21 20 18 16 14 11 9 8 7 7 6 6 5 5 5 5 5 5 4 3 3 3 5 6 5 7 8 7 5 4 3 4 5 5 6 9 11
6 5 6 5 5 4 3 6 4 1 1 3 6 3 3 3 5 5 2 5 5 7 10 9 9 10 9 7 7 7 7 7 7 8 9 9 12 18 23 27 27 28 30 32 33 34 33 32 30 29 29 29 27 24 22 22 23 25 25 24 22 20 17 15 14 12 11 10 9 8 7 6 5 4 4 5 6 6 4 3 3 3 5 6 7 8 9 9 7 5 3 4 4 5 6 5 6
5 4 5 4 4 5 4 5 3 3 4 2 6 2 2 4 5 4 2 2 4 7 8 9 10 10 10 8 7 7 6 6 6 6 6 8 12 17 21 25 26 27 30 32 32 33 32 30 30 31 31 29 27 25 23 23 25 26 27 26 24 21 18 17 15 14 12 11 10 10 8 6 5 5 5 6 8 8 7 5 4 4 6 7 8 8 9 9 8 7 5 4 4 4 4 3 3
3 4 6 5 5 5 4 3 4 4 2 5 6 1 3 1 5 3 1 1 4 5 5 6 8 8 8 7 7 8 7 6 6 5 5 6 10 14 18 22 23 23 25 27 29 30 30 30 31 32 31 28 26 24 23 25 27 29 29 27 26 23 21 20 19 16 14 13 12 10 9 7 6 6 7 8 10 10 8 7 6 6 7 7 7 8 8 7 7 7 6 6 6 5 6 6 5
4 4 4 3 3 4 4 4 4 4 2 5 5 1 5 2 5 4 5 5 4 5 6 7 10 10 9 8 7 7 7 6 6 6 6 7 9 11 15 18 19 20 22 24 26 28 29 29 29 30 27 23 21 22 24 26 29 31 30 28 26 24 23 22 21 19 17 15 13 12 10 9 9 9 10 10 11 10 8 7 6 7 8 8 8 8 8 7 7 7 7 8 8 8 8 8 8
5 5 5 3 1 3 1 2 2 2 3 3 2 0 2 3 6 5 6 7 6 6 7 8 9 9 8 7 7 6 6 6 6 6 6 6 7 9 13 17 18 20 22 23 24 25 26 27 26 25 22 22 25 26 28 29 29 30 28 27 26 24 23 22 20 20 20 17 16 14 12 11 12 12 12 11 11 9 7 6 7 9 9 9 9 9 8 8 8 8 8 8 8 8 8 8 9
3 4 4 3 3 3 1 3 0 2 3 2 2 1 1 2 3 5 7 7 6 3 3 4 4 5 7 7 7 7 6 6 6 6 6 6 6 9 13 17 19 20 21 22 24 23 24 25 24 24 24 28 31 32 33 32 29 28 27 26 26 24 23 21 18 19 20 19 17 16 14 13 14 14 13 12 11 9 7 7 9 10 10 10 9 9 8 7 7 8 8 8 8 7 6 6 8
3 4 6 4 4 4 3 3 2 3 2 2 3 1 2 1 2 6 7 5 5 4 4 6 7 6 7 8 8 9 7 6 6 5 4 3 6 10 13 16 18 20 21 22 23 23 24 25 25 27 29 31 33 35 33 28 26 26 27 27 26 24 22 19 17 18 19 19 18 16 15 14 14 14 14 13 12 10 9 10 11 11 11 11 10 10 9 8 8 8 8 8 8 6 6 7 7
2 2 5 3 4 5 2 3 5 4 2 0 1 2 2 2 2 6 5 5 7 7 6 9 9 7 8 8 8 8 7 7 7 7 5 3 4 9 13 15 18 20 22 23 23 24 25 25 26 29 31 33 35 35 30 23 23 26 26 28 27 24 22 19 18 18 18 18 18 16 16 15 13 14 15 15 13 12 12 12 11 11 11 10 10 10 10 10 9 9 9 8 8 7 6 7 7
1 2 3 4 4 7 5 1 1 4 3 1 1 1 4 2 2 7 7 6 8 7 6 7 8 8 9 7 6 7 8 8 7 7 6 3 4 6 10 15 18 20 23 24 24 25 26 26 27 29 32 33 32 30 28 25 27 27 26 28 27 25 24 21 18 19 18 18 17 15 15 15 14 14 16 16 15 14 13 13 12 12 11 10 11 11 10 10 9 9 9 9 9 8 7 7 7
3 2 5 2 3 4 5 2 3 5 2 3 2 1 3 2 0 5 7 6 6 7 6 5 5 7 8 6 6 6 7 8 6 6 6 5 5 6 8 12 16 20 22 24 24 25 25 26 28 29 30 27 22 21 23 25 27 27 27 29 27 25 25 20 18 19 19 18 18 17 16 17 15 15 16 17 17 16 15 14 14 13 12 11 11 11 10 10 10 9 9 9 10 9 8 9 8
4 3 3 4 3 1 2 3 2 2 1 2 3 2 2 1 2 4 5 2 2 4 4 4 5 6 6 6 6 6 6 6 5 5 5 4 5 7 8 10 13 16 18 19 20 21 22 23 24 25 23 21 21 22 24 27 26 24 26 26 25 25 23 16 15 20 21 19 19 18 18 18 17 16 17 17 17 17 16 16 15 13 12 11 11 10 9 8 9 10 10 10 10 9 9 9 8
3 2 3 3 3 3 2 2 3 4 3 2 1 3 2 3 4 3 5 6 3 4 4 3 4 5 4 4 5 4 5 5 4 4 3 3 4 6 7 7 8 10 12 13 14 16 18 19 19 19 16 17 25 27 25 23 17 13 16 18 20 24 22 15 16 23 24 22 19 17 18 19 18 18 18 18 17 16 17 18 18 16 14 13 12 11 9 8 9 9 8 9 9 8 8 8 8
3 3 4 3 2 2 2 1 2 4 4 3 2 0 4 5 4 4 6 7 5 6 6 4 3 4 4 4 5 4 4 4 3 3 3 3 3 3 5 7 8 8 9 11 12 13 14 15 15 15 13 14 21 23 20 20 17 13 18 22 22 25 24 17 20 26 26 25 22 18 18 18 19 20 20 19 19 18 17 17 19 18 17 16 15 13 12 11 10 9 8 7 7 7 6 6 6
3 3 1 1 2 3 4 1 1 2 4 4 4 2 6 6 2 2 5 5 5 6 7 6 3 3 4 4 5 5 4 4 3 4 5 4 1 3 6 7 8 8 8 10 11 11 11 12 12 12 11 12 17 20 22 26 26 24 26 25 23 27 26 22 23 27 28 28 25 21 19 20 21 21 21 21 20 20 18 18 19 20 19 18 16 15 14 13 12 11 9 9 8 8 7 7 6
Wind_Direction
324 305 342 345 327 136 79 84 92 317 91 259 266 232 257 242 237 266 282 283 119 307 291 110 66 65 93 108 124 104 54 92 178 160 206 174 158 164 167 166 162 163 165 165 164 160 163 169 165 164 165 164 161 157 153 147 142 137 133 132 129 128 128 127 127 127 126 125 123 123 122 122 120 118 116 115 114 113 111 113 118 120 118 113 107 104 104 106 107 107 103 109 116 117 119 119 120
308 253 317 348 19 104 191 79 100 318 61 299 271 175 253 296 306 269 260 241 155 177 103 86 77 73 93 111 126 83 46 33 141 133 84 133 145 160 165 163 162 165 166 166 165 160 161 167 166 165 164 165 164 159 155 149 144 140 136 133 131 130 130 130 129 129 129 128 125 123 122 123 122 122 121 119 116 114 113 113 115 118 117 112 109 106 105 105 110 110 99 106 116 118 119 120 122
285 256 307 37 43 56 102 46 96 129 106 238 269 226 265 305 266 271 276 229 154 153 131 89 74 60 79 80 56 64 76 44 93 72 104 135 144 162 166 164 163 164 162 162 162 157 157 164 168 165 163 165 165 161 158 152 146 142 139 135 134 133 132 133 132 131 130 128 127 125 124 123 124 125 125 122 117 115 114 113 112 113 112 109 110 109 108 105 109 108 97 100 111 119 121 122 124
293 263 303 109 53 31 66 52 134 128 166 224 273 258 235 237 242 294 322 298 173 166 153 113 70 357 68 93 86 84 114 135 106 81 129 154 168 164 162 162 162 161 158 158 157 153 156 163 166 163 162 165 165 163 161 155 149 145 142 138 136 136 134 135 135 133 130 129 129 128 127 127 128 129 130 127 124 121 118 118 116 113 114 115 115 112 109 107 107 105 100 99 104 121 128 127 128
15 230 284 81 89 45 95 96 121 130 215 196 212 261 234 232 253 353 331 310 245 226 212 153 104 321 79 97 144 113 117 140 116 100 144 171 171 161 159 161 161 159 157 156 153 151 155 160 161 161 163 164 163 163 162 159 153 148 146 142 140 138 136 137 138 136 132 131 129 129 129 130 132 133 135 134 131 129 126 126 126 124 125 127 124 117 112 111 111 109 107 106 106 120 131 130 131
79 93 46 61 97 174 113 132 181 208 229 161 182 271 279 265 281 345 310 345 323 284 290 240 113 127 100 40 67 86 104 145 130 155 167 163 162 159 158 158 157 155 154 152 153 152 152 158 160 161 163 162 162 162 163 162 157 153 149 147 144 141 140 141 141 139 136 134 132 130 130 132 135 136 136 137 136 134 133 133 134 134 133 133 130 124 119 116 112 106 104 108 113 122 128 127 129
78 86 36 58 28 31 111 180 211 229 244 177 200 273 287 286 294 326 311 17 356 309 312 72 110 109 92 5 72 19 4 120 135 166 165 153 153 152 150 151 150 148 147 150 154 151 152 159 159 161 164 162 162 160 162 164 161 157 154 150 148 145 144 144 144 142 140 138 135 133 132 134 135 136 136 137 137 138 139 140 140 138 135 136 137 133 129 123 109 104 102 104 113 124 131 131 130
61 112 50 92 53 15 106 218 234 214 248 227 228 259 270 279 287 302 290 179 254 274 117 127 86 76 34 21 75 360 16 75 123 139 139 140 142 138 139 141 138 138 137 141 147 150 155 159 158 161 163 163 163 159 160 164 164 161 156 154 150 148 146 146 145 144 143 140 138 136 135 134 134 136 135 136 137 140 142 144 145 142 139 140 145 146 141 130 114 112 110 106 112 123 134 141 140
50 63 101 92 110 28 32 268 269 230 258 264 256 261 264 272 277 274 261 235 213 139 110 222 39 86 103 60 74 355 21 78 117 121 126 132 132 129 130 130 128 128 129 133 139 148 155 158 158 160 161 162 162 159 159 160 164 162 158 156 152 150 149 148 147 147 147 144 141 138 136 135 136 137 135 136 137 140 142 145 148 146 146 147 152 156 153 139 124 124 119 112 112 118 128 138 141
35 31 122 85 100 62 312 279 284 264 254 262 270 268 264 268 266 258 250 229 194 118 94 65 73 108 116 88 76 25 61 108 116 113 124 131 130 131 132 136 138 137 141 145 145 150 155 156 158 157 157 158 158 158 158 158 161 163 160 157 154 153 151 150 149 151 150 148 144 140 138 137 138 138 137 138 138 141 142 144 148 149 150 154 158 158 159 147 136 135 127 120 114 113 124 134 140
34 345 97 77 76 162 251 262 282 270 272 294 285 270 261 264 257 259 243 173 152 117 136 81 83 108 98 88 55 75 108 110 114 117 130 135 135 140 141 141 142 141 144 147 144 148 152 157 158 154 153 155 157 159 159 159 161 162 161 159 157 156 154 152 152 154 154 150 146 141 139 139 139 138 139 141 141 143 144 145 146 147 150 151 153 153 153 145 141 139 129 121 112 108 117 134 146
79 327 68 94 133 198 213 236 278 283 300 307 280 281 287 294 241 216 174 147 138 126 166 113 130 125 91 90 95 128 116 107 122 127 134 137 137 141 141 139 140 142 142 141 140 144 148 153 154 153 154 156 159 160 160 160 162 163 162 162 160 158 155 153 154 156 155 151 147 141 138 139 140 141 141 143 144 145 146 146 144 144 146 147 147 144 144 141 137 132 125 117 108 105 106 123 147
125 158 86 124 189 190 178 193 279 315 314 282 252 294 310 318 259 200 156 125 130 130 136 132 147 126 98 120 121 146 124 123 134 131 135 137 137 138 138 144 148 147 145 142 140 141 143 146 150 156 157 158 161 159 160 162 163 165 165 164 162 159 155 155 156 157 155 151 148 143 140 140 142 143 143 145 147 149 150 148 143 142 143 144 145 142 141 140 133 127 122 113 107 106 98 104 140
161 158 114 169 232 179 172 200 288 338 281 274 263 305 315 319 192 208 127 96 77 137 119 122 131 103 105 130 130 173 136 137 137 132 139 137 137 139 142 150 150 144 144 144 142 144 142 145 154 159 160 159 161 161 162 164 165 166 166 165 162 159 157 157 158 157 154 152 149 145 144 141 141 143 144 147 151 152 152 150 145 142 140 142 145 143 142 140 134 127 122 116 111 112 96 88 125
184 136 97 128 286 266 212 205 214 178 248 299 304 314 329 316 146 131 127 110 52 127 108 111 131 91 151 173 172 174 146 143 138 135 138 132 132 137 141 146 142 138 141 143 146 152 146 147 154 157 161 160 163 165 166 166 166 167 166 165 163 160 159 159 159 157 155 153 150 146 146 144 142 143 144 149 153 153 152 152 148 142 138 139 145 145 144 144 141 136 127 123 115 116 103 82 113
167 102 75 115 249 236 237 221 170 177 260 294 295 327 346 319 51 75 282 123 120 109 78 119 264 107 171 182 154 146 146 142 138 136 130 126 128 130 136 139 138 140 144 147 152 157 150 149 151 153 160 163 167 167 167 167 167 168 166 165 162 161 160 159 158 157 156 155 153 153 153 152 150 148 149 153 154 154 154 154 152 146 141 138 145 149 150 152 152 148 134 127 119 116 116 92 113
91 85 84 232 222 196 219 217 165 182 268 287 312 346 5 320 351 58 5 68 109 90 42 33 336 54 153 140 127 138 141 138 137 131 121 123 127 129 135 137 139 144 149 154 158 157 153 153 152 152 159 168 172 169 168 167 166 167 166 163 162 163 162 159 159 158 160 161 163 166 167 165 161 158 155 157 156 154 154 154 153 150 149 142 143 152 158 159 157 156 141 132 126 120 133 124 120
96 104 145 219 208 203 198 190 194 200 275 293 321 336 7 344 337 58 46 46 77 67 41 41 40 55 85 102 122 134 135 135 135 127 122 129 132 135 140 141 143 146 150 155 162 163 160 160 157 155 160 172 178 174 170 166 166 167 166 165 164 165 164 162 163 164 169 172 175 177 177 175 172 168 163 162 159 155 155 155 158 160 160 152 147 153 164 168 164 162 155 146 143 138 150 145 131
143 134 185 224 204 214 208 203 244 240 269 293 312 318 343 328 269 62 79 64 71 76 54 59 75 78 88 109 125 131 132 135 137 132 132 139 141 143 144 146 148 148 153 160 169 174 172 168 164 161 164 177 183 178 172 168 169 169 168 168 166 166 166 168 170 172 178 180 180 182 184 182 180 177 172 169 164 160 162 164 168 172 169 163 160 161 168 176 175 171 166 168 188 185 164 146 138
173 153 220 245 212 231 249 230 241 240 256 295 305 309 320 283 260 53 114 104 41 113 127 104 110 113 114 126 133 131 133 137 140 138 138 143 147 152 152 153 156 157 164 171 176 180 179 172 166 164 170 181 183 177 173 172 172 170 171 169 167 168 171 176 180 182 185 187 185 185 188 187 186 184 179 176 174 175 176 174 176 179 176 173 171 173 178 180 181 182 184 193 210 217 191 151 138
187 171 205 239 202 236 263 235 242 248 222 264 299 318 311 291 6 86 128 102 347 224 196 158 144 139 135 142 142 136 136 137 141 142 143 147 152 160 163 163 165 168 172 176 179 180 179 174 170 171 177 183 182 178 175 174 174 173 172 170 170 174 179 181 186 192 191 193 192 190 194 191 190 190 188 187 188 190 191 187 185 184 182 183 182 181 188 188 188 189 196 207 216 225 227 200 139
186 225 207 232 203 235 265 246 246 244 205 251 306 312 294 312 46 133 143 145 238 215 195 168 152 148 148 149 145 139 138 137 143 147 151 156 159 164 169 170 170 173 176 178 181 181 179 176 177 179 181 182 183 182 178 176 176 177 176 174 176 181 186 187 190 199 199 200 198 196 198 197 196 198 201 203 202 205 206 204 198 195 193 195 198 196 201 197 197 197 203 214 223 231 241 266 128
214 269 237 241 216 216 266 267 247 222 215 253 253 280 288 2 343 164 145 200 237 171 142 153 152 148 144 142 143 142 143 145 150 157 161 161 164 168 172 173 174 178 181 182 182 182 180 180 183 183 183 182 183 185 182 181 180 182 182 178 183 187 191 194 197 202 205 206 204 202 203 203 206 207 210 215 216 217 220 219 213 211 208 208 220 222 219 211 204 204 209 213 217 225 239 288 341
204 260 271 261 240 227 256 266 264 244 237 241 218 302 274 291 300 74 64 264 177 117 125 139 141 138 138 139 142 145 147 150 155 162 166 166 171 174 174 176 179 181 182 183 184 183 182 183 184 184 184 184 184 185 186 186 184 186 184 180 189 193 196 202 204 206 208 210 209 209 211 213 215 214 216 223 228 228 230 230 226 225 223 224 236 238 224 219 216 200 199 198 195 202 222 318 356
215 235 257 264 263 247 255 265 268 255 243 239 199 267 247 225 153 59 0 338 119 119 126 134 136 137 142 145 148 151 153 151 153 160 167 172 175 177 178 181 183 184 185 184 185 184 183 182 181 184 186 186 185 185 188 190 188 188 187 187 194 199 204 209 210 210 211 214 215 215 219 223 221 219 224 231 239 241 238 239 240 239 238 240 246 245 231 224 219 193 183 180 175 184 197 65 31
217 221 249 265 273 264 263 266 261 251 239 190 174 241 254 221 110 43 344 75 119 124 129 137 140 141 146 152 158 159 158 156 158 162 168 175 179 184 187 186 188 191 189 186 185 183 181 179 179 184 187 188 187 186 189 193 192 192 194 195 199 205 211 215 216 215 217 219 220 220 223 228 225 225 232 238 245 248 244 245 250 252 251 252 255 251 239 232 221 201 183 174 174 185 190 152 69
218 222 264 262 269 271 262 262 259 238 224 192 183 231 262 230 118 89 256 130 134 128 132 147 146 147 153 159 166 165 166 165 164 162 165 176 185 192 191 188 191 194 191 183 181 180 175 176 179 184 188 190 189 188 192 194 196 200 203 202 204 212 216 219 220 222 225 226 226 225 226 230 231 233 235 238 245 245 243 247 254 259 260 260 262 259 250 244 231 215 197 185 187 195 202 211 232
265 279 306 280 281 285 259 263 260 198 223 199 174 226 288 22 117 174 168 150 151 139 142 155 150 154 160 161 167 172 175 167 165 165 170 182 189 195 194 191 190 194 191 179 175 174 172 175 181 186 191 191 191 193 196 199 203 209 212 207 209 218 221 222 223 225 231 233 231 230 230 233 236 237 234 238 243 240 238 245 254 258 261 263 264 262 256 252 245 228 213 208 208 213 226 233 230
278 290 318 294 332 320 263 258 230 168 207 181 146 291 312 311 230 172 155 152 156 146 148 157 156 159 160 163 169 178 181 167 168 177 183 185 188 193 196 194 187 188 191 178 170 172 173 177 182 188 194 194 194 196 200 204 209 213 216 212 213 222 226 227 226 226 233 237 239 239 237 235 239 240 237 238 238 235 234 241 252 255 258 261 260 255 251 250 249 240 234 230 221 225 240 240 238
293 49 137 298 355 322 271 265 203 170 200 170 135 279 279 277 219 162 153 154 155 155 159 160 157 158 158 168 177 183 183 173 179 188 190 188 189 193 197 195 185 184 187 180 175 175 176 178 183 189 193 193 194 199 202 204 208 213 215 215 218 226 232 235 231 227 232 236 239 243 242 240 243 245 239 235 233 231 233 236 243 247 252 257 252 245 242 240 242 244 247 238 223 227 242 244 243
324 353 62 342 355 286 289 300 231 249 250 155 132 241 256 234 187 166 162 162 160 165 169 163 155 158 165 175 181 186 187 186 193 194 194 192 190 195 197 193 188 183 182 183 183 180 179 182 185 187 188 189 192 196 197 198 206 210 211 214 220 229 235 235 232 229 231 235 235 236 240 242 242 241 234 229 228 228 234 236 234 236 243 247 240 237 236 234 236 239 242 234 221 215 219 217 211
6 359 326 332 203 270 301 292 203 218 269 126 136 230 255 184 189 177 170 171 166 163 167 165 160 164 172 182 183 182 183 190 200 204 202 196 194 199 197 191 188 184 184 188 189 185 183 185 189 187 183 185 188 190 189 192 201 204 206 210 216 222 223 225 227 226 228 232 234 233 234 236 234 234 233 231 230 231 234 236 233 231 237 241 236 235 235 235 236 235 231 227 217 206 202 192 180
356 74 252 278 278 298 314 311 246 201 220 302 177 204 214 189 197 185 174 175 167 161 163 163 165 171 178 184 183 178 174 184 204 210 207 199 200 203 196 189 186 182 186 188 190 192 188 186 192 190 181 181 183 184 184 187 195 201 204 204 206 212 218 224 223 221 223 227 233 234 230 231 232 231 232 234 232 232 233 236 235 230 233 242 243 243 243 239 236 233 227 222 218 208 199 190 178
315 18 273 256 262 280 303 308 287 199 184 224 217 201 228 214 189 185 179 169 162 161 157 161 175 183 187 188 184 181 177 185 200 206 206 201 201 202 193 188 186 184 189 189 189 193 190 186 191 191 183 182 183 180 180 184 187 193 200 198 196 205 218 225 226 228 227 225 228 233 236 241 241 232 228 230 231 232 233 235 237 230 228 241 248 253 253 245 235 232 229 220 213 208 202 194 185
234 308 347 299 291 236 261 277 280 274 217 208 192 212 248 193 172 179 179 157 155 168 167 176 185 179 185 193 189 188 185 190 191 193 201 199 197 197 190 187 191 195 196 190 188 192 190 186 189 190 184 182 184 182 182 183 182 184 189 185 184 194 205 214 226 237 232 231 232 232 242 246 239 228 222 225 228 230 229 227 230 232 233 242 247 247 248 244 233 229 228 214 198 197 197 191 186
185 218 202 268 288 266 254 252 254 260 250 227 196 200 181 157 167 170 168 152 160 185 187 181 173 166 179 195 199 194 191 194 181 179 190 192 190 191 190 193 198 200 197 189 186 189 187 184 186 187 183 181 183 181 179 177 177 180 180 171 168 176 186 196 209 226 230 239 234 221 222 219 213 205 201 210 220 221 221 221 222 225 234 240 238 232 232 236 232 222 216 206 190 181 179 180 181
168 225 230 256 270 274 270 262 281 201 196 250 192 147 148 164 169 167 162 160 173 193 204 180 163 172 183 194 202 195 191 192 165 170 179 182 183 186 192 199 196 192 190 187 184 184 182 181 181 181 181 181 179 176 173 173 176 179 176 166 159 158 163 167 164 170 176 170 175 178 169 158 160 168 175 190 201 203 212 216 215 219 228 232 231 229 226 226 226 219 203 190 183 174 165 168 175
197 229 243 264 243 260 271 269 309 24 132 298 109 126 154 169 161 162 160 176 192 184 185 184 179 182 186 196 201 187 172 149 142 162 170 173 176 182 191 195 191 184 182 184 185 181 178 177 174 172 174 176 174 173 173 174 178 182 179 171 166 164 162 159 155 153 146 140 141 139 138 130 131 140 147 159 165 173 197 206 209 218 226 229 230 230 230 225 219 214 199 179 173 173 166 169 176
188 194 201 249 246 280 295 292 323 13 99 296 143 128 148 192 163 170 175 190 202 189 187 186 178 182 190 197 192 173 161 149 158 167 164 169 172 175 180 183 185 184 179 180 181 177 173 171 169 168 171 174 175 177 178 177 178 183 183 176 173 172 167 164 163 159 154 155 157 162 177 169 158 151 141 137 128 129 162 178 176 190 212 225 224 217 222 223 209 198 194 182 170 164 158 167 180
162 181 180 252 269 300 294 303 334 354 57 153 124 107 94 334 24 197 207 211 213 182 192 193 183 188 196 196 187 173 173 169 170 173 168 172 172 171 172 173 177 178 175 174 173 172 171 170 170 170 172 175 178 181 182 179 178 182 182 176 174 172 165 164 164 163 166 171 177 191 215 225 210 189 164 147 129 118 146 165 163 166 181 197 205 209 213 218 210 196 193 190 181 175 166 169 181
262 213 181 211 257 223 233 299 337 344 2 67 83 62 344 358 91 207 242 290 340 126 175 214 216 207 202 196 193 185 182 174 171 177 177 176 173 169 168 171 174 175 173 172 173 174 173 173 175 176 176 176 177 182 184 181 179 181 178 171 170 166 160 162 166 167 172 180 190 203 222 223 207 199 186 164 142 122 139 153 157 160 163 167 176 196 210 218 220 209 203 196 188 195 197 189 186
291 242 202 197 203 230 265 333 15 23 4 356 61 66 302 319 241 214 241 247 236 167 183 213 212 206 206 194 195 193 192 192 184 184 178 169 165 163 167 173 176 178 177 174 175 178 177 178 179 179 176 175 178 183 186 187 186 186 181 175 175 173 167 171 178 177 177 184 193 202 200 176 175 186 182 172 163 140 137 146 148 151 145 137 138 154 186 207 210 207 213 208 196 204 212 203 194
288 239 201 179 154 196 284 26 66 79 314 314 49 112 234 311 283 245 244 200 213 199 201 215 199 203 218 202 194 188 186 199 203 195 179 166 164 162 168 177 180 183 181 176 177 179 179 180 181 179 176 176 181 184 187 190 190 189 188 186 187 187 180 179 185 186 181 180 179 180 169 149 148 162 164 170 176 155 135 133 135 149 147 127 112 115 129 149 172 189 206 209 214 219 223 220 202
239 228 151 128 130 169 215 103 100 184 217 325 9 95 134 310 260 263 272 171 205 222 212 218 207 208 218 208 196 186 181 184 188 193 184 174 174 170 172 179 183 184 181 178 178 179 181 182 180 178 177 178 184 187 188 191 190 188 188 189 189 191 188 181 182 184 178 173 170 167 164 153 143 143 147 162 178 171 154 126 104 126 155 140 118 114 117 118 133 155 160 182 212 210 212 227 206
245 212 136 129 139 151 130 97 95 344 65 330 326 46 102 276 270 289 313 153 199 234 221 217 213 211 212 206 195 185 182 181 183 191 187 180 181 178 177 179 183 184 182 182 182 182 183 182 179 179 181 183 187 190 189 190 192 188 187 188 186 187 187 177 175 178 173 171 170 166 165 160 149 141 138 149 166 172 171 149 106 110 140 139 129 122 116 112 111 114 138 168 182 181 191 219 205
235 161 105 74 83 84 75 87 92 32 51 243 283 349 114 267 290 314 343 134 195 239 242 223 215 216 208 195 186 179 173 174 180 187 189 185 184 181 179 180 184 187 186 185 185 186 184 182 182 183 185 187 190 191 190 190 191 189 188 187 183 181 178 170 169 173 172 174 175 170 168 164 157 151 146 150 157 155 148 142 131 124 126 127 129 125 119 114 107 103 111 137 153 156 155 151 162
167 96 63 47 40 41 48 56 81 62 4 253 259 276 119 260 288 267 245 201 187 222 267 244 217 220 211 188 178 176 170 170 167 158 157 164 171 177 178 180 184 188 189 188 188 188 187 185 185 186 188 190 190 191 193 194 193 192 191 188 184 179 174 170 170 175 178 180 181 178 177 173 163 156 153 153 152 149 142 138 137 138 134 130 130 131 133 130 120 118 122 124 124 117 112 119 124
93 81 72 81 10 17 32 356 44 91 265 262 257 253 104 153 263 256 251 263 221 201 235 234 209 203 200 184 170 168 164 160 151 142 143 144 152 168 175 178 181 186 190 192 192 191 190 189 188 186 185 183 182 184 189 192 193 193 193 191 186 181 177 174 174 180 185 185 187 187 187 184 172 162 160 158 155 153 152 149 152 154 149 144 141 141 142 143 141 140 137 128 120 111 104 105 107
80 81 72 90 18 16 29 310 15 154 234 252 258 355 101 211 245 260 268 276 273 234 222 222 210 196 183 163 149 142 139 144 144 140 147 153 154 164 171 176 181 186 192 195 196 195 193 191 189 181 174 178 183 185 187 191 192 193 194 193 189 185 181 177 177 184 187 189 192 194 195 189 179 171 168 167 162 160 162 159 157 158 157 154 152 151 149 147 149 149 145 138 127 119 112 107 108
131 129 111 122 107 77 239 262 319 230 238 264 297 281 235 266 283 284 281 291 306 284 208 173 164 157 143 128 118 111 109 123 134 136 152 167 168 168 174 179 184 187 192 197 199 198 195 191 186 177 175 185 189 187 186 189 191 193 196 197 192 187 184 179 180 188 190 191 195 198 200 194 184 179 176 175 171 167 168 156 145 147 149 148 146 148 152 154 158 158 156 152 143 137 134 129 122
182 164 129 139 154 143 201 219 177 206 230 301 310 264 173 176 311 300 294 319 10 37 62 84 88 98 111 108 104 106 104 105 106 105 115 139 163 175 181 182 185 188 193 199 200 199 196 190 184 180 182 188 189 187 184 185 192 194 196 199 194 189 188 184 185 191 192 194 197 201 202 196 189 184 181 181 178 176 170 153 144 142 138 136 134 133 136 138 144 150 153 154 149 147 148 141 131
236 147 108 146 186 148 140 177 169 170 147 330 261 221 207 193 287 325 352 19 28 37 52 77 86 87 96 97 99 105 103 100 101 94 81 72 145 177 186 185 187 190 195 200 200 199 197 189 184 185 188 189 189 186 175 177 200 202 198 199 195 189 189 186 189 194 196 198 200 204 204 199 195 189 185 185 185 184 176 160 151 146 139 135 131 130 132 133 135 137 139 141 137 138 145 142 135
208 134 158 215 174 121 107 142 89 79 102 253 250 261 306 341 341 341 8 27 24 22 31 70 90 94 93 94 98 106 109 109 109 111 119 131 136 157 181 186 189 193 196 201 201 201 198 190 186 188 191 191 188 179 170 180 204 206 200 199 194 190 190 188 192 197 199 203 205 209 210 205 203 197 191 188 187 186 181 171 164 156 149 143 137 135 136 141 144 141 138 137 133 135 141 139 138
117 181 197 170 72 96 104 104 18 46 118 270 344 339 316 31 37 327 359 23 31 22 5 23 70 94 98 96 97 102 109 113 113 115 124 135 127 131 159 179 192 198 201 203 203 204 201 194 192 192 192 188 173 164 174 192 205 203 200 199 194 193 192 189 197 202 203 206 208 212 215 211 208 204 197 193 190 190 188 181 176 171 164 158 150 145 143 147 152 148 142 139 134 136 139 137 138
127 195 186 99 100 170 93 111 127 94 167 275 353 350 315 139 215 311 344 330 48 60 30 20 44 73 90 94 97 98 99 103 106 109 117 130 137 142 150 168 191 202 207 209 206 204 201 195 195 194 191 180 169 176 193 202 201 197 196 194 191 195 193 188 202 210 208 209 211 215 218 215 213 209 203 198 196 195 193 189 187 183 176 171 167 161 155 157 163 159 152 147 143 140 140 137 136
32 36 9 50 126 158 147 138 145 139 163 206 11 3 304 225 221 247 273 269 236 159 149 89 55 57 67 72 75 82 96 104 108 116 127 134 135 144 150 164 189 199 204 209 208 207 202 196 195 196 195 186 183 191 199 201 196 189 192 194 195 197 193 188 207 215 214 213 213 217 221 220 217 214 209 204 203 202 198 195 194 192 186 180 178 176 174 172 173 172 165 159 153 149 149 145 141
7 29 5 1 46 109 131 97 95 128 141 164 152 52 273 253 213 213 259 274 249 202 166 121 101 100 92 85 73 57 57 72 93 112 100 72 88 144 173 188 199 198 196 197 201 205 203 202 203 204 205 194 188 189 194 201 206 206 205 207 207 201 194 198 213 217 217 217 216 216 221 225 223 219 215 210 209 208 206 202 199 198 195 190 187 185 185 184 181 178 176 173 170 165 171 168 154
115 101 24 122 146 124 119 116 314 107 125 158 154 158 264 263 197 223 268 275 249 205 145 118 108 107 101 98 96 81 56 37 43 60 46 20 325 211 194 192 191 189 191 195 199 203 204 206 210 211 204 188 183 184 190 200 205 204 205 209 209 202 201 207 213 216 217 218 219 217 218 225 227 222 220 217 215 213 212 210 204 202 201 199 198 195 193 193 191 188 186 186 186 184 189 193 185